Volver al catálogo

IRIDIUM 143

ActivoComunicacionesPO
NORAD 43258·PAYLOAD·🇺🇸 United States

Lanzado Mar 30, 2018 desde Vandenberg Space Force Base

Loading…

Próximos Pases (próximas 24 horas)

TLE

ActualizadoSource: CelesTrak SupGP

Época: Sep 14, 2026, 20:28 UTC

1 43258C 18030K   26257.85312500  .00003351  00000+0  11981-2 0  2570
2 43258  86.3917 253.0545 0002241  87.8365 281.0857 14.34213540    17

Sigue IRIDIUM 143 en tiempo real con AllMySat

Download on the App Store